timestamp,surface_pressure_avg,surface_temp_avg,battery_voltage,lat,long
2024-01-31 00:09:01+00:00,268.1864,0.4,11.37,47.84626,-54.09684
2024-01-31 00:19:00+00:00,273.4747,0.4,11.37,47.84626,-54.09684
2024-01-31 00:29:00+00:00,266.0581,0.34,11.37,47.84626,-54.09684
2024-01-31 00:39:00+00:00,277.9314,0.35,11.37,47.84626,-54.09684
2024-01-31 00:49:00+00:00,304.0646,0.38,11.37,47.84626,-54.09684
2024-01-31 00:59:00+00:00,309.793,0.3,11.37,47.84626,-54.09684
2024-01-31 01:09:00+00:00,299.433,0.3,11.37,47.84626,-54.09684
2024-01-31 01:19:00+00:00,309.0113,0.3,11.37,47.84626,-54.09684
2024-01-31 01:29:00+00:00,327.8780000000001,0.27,11.37,47.84626,-54.09684
2024-01-31 01:39:00+00:00,333.6163,0.2,11.37,47.84626,-54.09684
2024-01-31 01:49:00+00:00,330.5413,0.28,11.37,47.84626,-54.09684
2024-01-31 01:59:00+00:00,334.8479,0.35,11.37,47.84626,-54.09684
2024-01-31 02:09:00+00:00,336.8162,0.4,11.37,47.84626,-54.09684
2024-01-31 02:19:00+00:00,330.3780000000001,0.4,11.37,47.84626,-54.09684
2024-01-31 02:29:00+00:00,327.4913,0.4,11.37,47.84626,-54.09684
2024-01-31 02:39:00+00:00,333.103,0.4,11.37,47.84626,-54.09684
2024-01-31 02:49:00+00:00,328.80300000000005,0.4,11.37,47.84626,-54.09684
2024-01-31 02:59:00+00:00,322.8963,0.4,11.37,47.84626,-54.09684
2024-01-31 03:09:00+00:00,326.9197,0.4,11.37,47.84626,-54.09684
2024-01-31 03:19:00+00:00,327.8998,0.4,11.37,47.84626,-54.09684
2024-01-31 03:29:00+00:00,323.7896,0.4,11.37,47.84626,-54.09684
2024-01-31 03:39:00+00:00,324.2798,0.39,11.37,47.84626,-54.09684
2024-01-31 03:49:00+00:00,322.263,0.38,11.37,47.84626,-54.09684
2024-01-31 03:59:00+00:00,319.463,0.36,11.37,47.84626,-54.09684
2024-01-31 04:09:00+00:00,324.5813,0.35,11.37,47.84626,-54.09684
2024-01-31 04:19:00+00:00,324.1813,0.33,11.37,47.84626,-54.09684
2024-01-31 04:29:00+00:00,316.6746,0.3,11.37,47.84626,-54.09684
2024-01-31 04:39:00+00:00,316.1096,0.3,11.37,47.84626,-54.09684
2024-01-31 04:49:00+00:00,326.2097,0.3,11.37,47.84626,-54.09684
2024-01-31 04:59:00+00:00,323.358,0.3,11.37,47.84626,-54.09684
2024-01-31 05:09:00+00:00,309.008,0.3,11.37,47.84626,-54.09684
2024-01-31 05:19:00+00:00,303.0215,0.3,11.37,47.84626,-54.09684
2024-01-31 05:29:00+00:00,299.3664,0.3,11.37,47.84626,-54.09684
2024-01-31 05:39:00+00:00,292.073,0.3,11.37,47.84626,-54.09684
2024-01-31 05:49:00+00:00,280.6731,0.3,11.37,47.84626,-54.09684
2024-01-31 05:59:00+00:00,277.1548,0.28,11.37,47.84626,-54.09684
2024-01-31 06:09:00+00:00,269.4648,0.2,11.37,47.84626,-54.09684
2024-01-31 06:19:00+00:00,254.8498,0.2,11.37,47.84626,-54.09684
2024-01-31 06:29:00+00:00,247.5981,0.2,11.37,47.84626,-54.09684
2024-01-31 06:39:00+00:00,253.9414,0.19,11.37,47.84626,-54.09684
2024-01-31 06:49:00+00:00,251.7797,0.19,11.37,47.84626,-54.09684
2024-01-31 06:59:00+00:00,239.3581,0.13,11.37,47.84626,-54.09684
2024-01-31 07:09:00+00:00,234.8498,0.1,11.37,47.84626,-54.09684
2024-01-31 07:19:00+00:00,233.4965,0.1,11.37,47.84626,-54.09684
2024-01-31 07:29:00+00:00,224.5998,0.1,11.37,47.84626,-54.09684
2024-01-31 07:39:00+00:00,216.4748,0.09,11.37,47.84626,-54.09684
2024-01-31 07:49:00+00:00,213.9398,0.06,11.37,47.84626,-54.09684
2024-01-31 07:59:00+00:00,212.0298,0.0,11.37,47.84626,-54.09684
2024-01-31 08:09:00+00:00,205.5281,0.0,11.37,47.84626,-54.09684
2024-01-31 08:19:00+00:00,203.0016,0.0,11.37,47.84626,-54.09684
2024-01-31 08:29:00+00:00,205.19299999999998,0.0,11.37,47.84626,-54.09684
2024-01-31 08:39:00+00:00,201.1848,0.0,11.37,47.84626,-54.09684
2024-01-31 08:49:00+00:00,196.4598,0.0,11.37,47.84626,-54.09684
2024-01-31 08:59:00+00:00,198.9698,0.0,11.37,47.84626,-54.09684
2024-01-31 09:09:00+00:00,202.0497,0.04,11.37,47.84626,-54.09684
2024-01-31 09:19:00+00:00,201.5932,0.05,11.37,47.84626,-54.09684
2024-01-31 09:29:00+00:00,201.5648,0.04,11.37,47.84626,-54.09684
2024-01-31 09:39:00+00:00,206.2414,0.01,11.37,47.84626,-54.09684
2024-01-31 09:49:00+00:00,209.1198,0.0,11.37,47.84626,-54.09684
2024-01-31 09:59:00+00:00,214.6481,0.0,11.37,47.84626,-54.09684
2024-01-31 10:09:00+00:00,219.7632,0.0,11.37,47.84626,-54.09684
2024-01-31 10:19:00+00:00,222.4681,0.09,11.37,47.84626,-54.09684
2024-01-31 10:29:00+00:00,229.1747,0.16,11.37,47.84626,-54.09684
2024-01-31 10:39:00+00:00,235.9015,0.2,11.37,47.84626,-54.09684
2024-01-31 10:49:00+00:00,237.3164,0.15,11.37,47.84626,-54.09684
2024-01-31 10:59:00+00:00,246.3864,0.1,11.37,47.84626,-54.09684
2024-01-31 11:09:00+00:00,254.3598,0.19,11.37,47.84626,-54.09684
2024-01-31 11:19:00+00:00,249.6014,0.38,11.37,47.84626,-54.09684
2024-01-31 11:29:00+00:00,245.8947,0.1,11.37,47.84626,-54.09684
2024-01-31 11:39:00+00:00,260.8814,0.09,11.37,47.84626,-54.09684
2024-01-31 11:49:00+00:00,271.2063,0.29,11.37,47.84626,-54.09684
2024-01-31 11:59:00+00:00,265.8381,0.2,11.37,47.84626,-54.09684
2024-01-31 12:09:00+00:00,266.4964,0.09,11.37,47.84626,-54.09684
2024-01-31 12:19:00+00:00,281.9297,0.0,11.37,47.84626,-54.09684
2024-01-31 12:29:00+00:00,282.9847,0.1,11.37,47.84626,-54.09684
2024-01-31 12:39:00+00:00,273.9481,-0.1,11.37,47.84626,-54.09684
2024-01-31 12:49:00+00:00,281.1197,-0.13,11.37,47.84626,-54.09684
2024-01-31 12:59:00+00:00,292.58799999999997,-0.1,11.37,47.84626,-54.09684
2024-01-31 13:09:00+00:00,291.0314,-0.2,11.37,47.84626,-54.09684
2024-01-31 13:19:00+00:00,286.6297,-0.2,11.37,47.84626,-54.09684
2024-01-31 13:29:00+00:00,304.3297,-0.2,11.37,47.84626,-54.09684
2024-01-31 13:39:00+00:00,316.0013,-0.16,11.37,47.84626,-54.09684
2024-01-31 13:49:00+00:00,312.4163,-0.2,11.37,47.84626,-54.09684
2024-01-31 13:59:00+00:00,316.1413,-0.2,11.37,47.84626,-54.09684
2024-01-31 14:09:00+00:00,331.8846,-0.15,11.37,47.84626,-54.09684
2024-01-31 14:19:00+00:00,332.9946,0.4,12.01,47.84626,-54.09684
2024-01-31 14:29:00+00:00,327.113,0.06,12.01,47.84626,-54.09684
2024-01-31 14:39:00+00:00,336.5079,0.0,12.01,47.84626,-54.09684
2024-01-31 14:49:00+00:00,350.4613,0.09,12.01,47.84626,-54.09684
2024-01-31 14:59:00+00:00,343.0914,0.05,12.01,47.84626,-54.09684
2024-01-31 15:09:00+00:00,336.0613,-0.1,12.01,47.84626,-54.09684
2024-01-31 15:19:00+00:00,344.9413,-0.1,12.01,47.84626,-54.09684
2024-01-31 15:29:00+00:00,347.37800000000016,-0.01,12.01,47.84626,-54.09684
2024-01-31 15:39:00+00:00,333.2797,-0.01,12.01,47.84626,-54.09684
2024-01-31 15:49:00+00:00,329.4613,0.0,12.01,47.84626,-54.09684
2024-01-31 15:59:00+00:00,337.3395,0.3,12.01,47.84626,-54.09684
2024-01-31 16:09:00+00:00,328.1013,0.1,12.01,47.84626,-54.09684
2024-01-31 16:19:01+00:00,313.3214,0.01,12.01,47.84626,-54.09684
2024-01-31 16:29:01+00:00,323.008,0.05,12.01,47.84626,-54.09684
2024-01-31 16:39:01+00:00,329.7447,0.1,12.01,47.84626,-54.09684
2024-01-31 16:49:01+00:00,317.033,0.1,12.01,47.84626,-54.09684
2024-01-31 16:59:01+00:00,310.298,0.1,12.01,47.84626,-54.09684
2024-01-31 17:09:01+00:00,319.2447,0.2,12.01,47.84626,-54.09684
2024-01-31 17:19:01+00:00,321.7196,0.28,12.01,47.84626,-54.09684
2024-01-31 17:29:01+00:00,308.608,0.33,12.01,47.84626,-54.09684
2024-01-31 17:39:01+00:00,302.778,0.39,12.01,47.84626,-54.09684
2024-01-31 17:49:01+00:00,302.093,0.4,12.01,47.84626,-54.09684
2024-01-31 17:59:01+00:00,297.5897,0.4,12.01,47.84626,-54.09684
2024-01-31 18:09:01+00:00,288.548,0.4,12.01,47.84626,-54.09684
2024-01-31 18:19:00+00:00,285.4532,0.45,11.93,47.84626,-54.09684
2024-01-31 18:29:00+00:00,281.3848,0.5,11.93,47.84626,-54.09684
2024-01-31 18:39:00+00:00,272.5864,0.53,11.93,47.84626,-54.09684
2024-01-31 18:49:00+00:00,260.8997,0.57,11.93,47.84626,-54.09684
2024-01-31 18:59:00+00:00,257.2146,0.57,11.93,47.84626,-54.09684
2024-01-31 19:09:00+00:00,253.5348,0.64,11.93,47.84626,-54.09684
2024-01-31 19:19:01+00:00,245.1631,0.83,11.77,47.84626,-54.09684
2024-01-31 19:29:01+00:00,235.4597,0.9,11.77,47.84626,-54.09684
2024-01-31 19:39:01+00:00,230.2831,0.95,11.77,47.84626,-54.09684
2024-01-31 19:49:01+00:00,226.8865,1.0,11.77,47.84626,-54.09684
2024-01-31 19:59:01+00:00,221.8731,1.0,11.77,47.84626,-54.09684
2024-01-31 20:09:01+00:00,214.9214,1.0,11.77,47.84626,-54.09684
2024-01-31 20:19:00+00:00,208.9181,0.99,11.61,47.84626,-54.09684
2024-01-31 20:29:00+00:00,207.4949,0.98,11.61,47.84626,-54.09684
2024-01-31 20:39:00+00:00,204.3715,0.99,11.61,47.84626,-54.09684
2024-01-31 20:49:00+00:00,201.2447,1.0,11.61,47.84626,-54.09684
2024-01-31 20:59:00+00:00,203.9865,1.0,11.61,47.84626,-54.09684
2024-01-31 21:09:00+00:00,209.3882,1.0,11.61,47.84626,-54.09684
2024-01-31 21:19:00+00:00,208.7347,1.0,11.53,47.84626,-54.09684
2024-01-31 21:29:00+00:00,208.6464,1.0,11.53,47.84626,-54.09684
2024-01-31 21:39:00+00:00,213.8431,1.03,11.53,47.84626,-54.09684
2024-01-31 21:49:00+00:00,216.1481,1.1,11.53,47.84626,-54.09684
2024-01-31 21:59:00+00:00,219.8164,1.17,11.53,47.84626,-54.09684
2024-01-31 22:09:00+00:00,224.9781,1.2,11.53,47.84626,-54.09684
2024-01-31 22:19:00+00:00,230.0031,1.2,11.53,47.84626,-54.09684
2024-01-31 22:29:00+00:00,229.9881,1.2,11.53,47.84626,-54.09684
2024-01-31 22:39:00+00:00,233.6647,1.2,11.53,47.84626,-54.09684
2024-01-31 22:49:00+00:00,239.3631,1.22,11.53,47.84626,-54.09684
2024-01-31 22:59:00+00:00,244.148,1.22,11.53,47.84626,-54.09684
2024-01-31 23:09:00+00:00,247.5681,1.21,11.53,47.84626,-54.09684
2024-01-31 23:19:00+00:00,250.9881,1.2,11.53,47.84626,-54.09684
2024-01-31 23:29:00+00:00,253.3197,1.21,11.53,47.84626,-54.09684
2024-01-31 23:39:00+00:00,257.0797,1.22,11.53,47.84626,-54.09684
2024-01-31 23:49:00+00:00,260.3381,1.21,11.53,47.84626,-54.09684
2024-01-31 23:59:00+00:00,258.3831,1.23,11.53,47.84626,-54.09684
